KD2VWU Weather Reports


time (UTC)temp
F
wind
direction
speed
knots
gust
knots
rain 1hr
in
rain 24hr
in
rain mn
in
humidity
%
barometer
mb
20260901004209 69 76 0.0 0.0 0.00 0.00 0.00 95 1015.6
20260901003704 69 76 0.0 0.0 0.00 0.00 0.00 95 1015.7
20260901003203 69 76 0.0 0.0 0.00 0.00 0.00 94 1015.5
20260901002657 69 75 0.0 0.0 0.00 0.00 0.00 94 1015.5
20260901002152 69 75 0.0 0.0 0.00 0.00 0.00 94 1015.6
20260901001648 69 93 0.0 0.0 0.00 0.00 0.00 94 1015.5
20260901001143 69 90 0.0 0.0 0.00 0.00 0.00 94 1015.5
20260901000638 69 56 0.0 0.0 0.00 0.00 0.00 94 1015.2
20260901000133 70 91 0.0 0.0 0.00 0.00 0.00 94 1015.2
20260831235627 70 355 0.0 0.0 0.00 0.00 0.00 93 1015.2
20260831235123 70 87 0.0 0.0 0.00 0.00 0.00 93 1015.3
20260831234621 70 81 0.0 0.0 0.00 0.00 0.00 92 1015.3
20260831234118 70 175 0.0 0.0 0.00 0.00 0.00 92 1015.4
20260831233612 70 175 0.0 0.0 0.00 0.00 0.00 92 1015.4
20260831233108 70 53 0.0 0.0 0.00 0.00 0.00 91 1015.6
20260831232603 70 43 0.0 0.0 0.00 0.00 0.00 91 1015.6
20260831232059 70 72 0.0 0.0 0.00 0.00 0.00 91 1015.6
20260831231555 70 115 0.0 0.0 0.00 0.00 0.00 90 1015.6
20260831231050 71 59 0.0 0.0 0.00 0.00 0.00 90 1015.7
20260831230546 71 52 0.0 0.0 0.00 0.00 0.00 89 1015.7
20260831230040 71 85 0.0 0.0 0.00 0.00 0.00 90 1015.6
20260831225535 71 8 0.0 0.0 0.00 0.00 0.00 89 1015.8
20260831225030 71 265 0.0 0.9 0.00 0.00 0.00 88 1015.6
20260831224525 71 120 0.0 0.0 0.00 0.00 0.00 89 1015.7
20260831224020 71 250 0.9 0.9 0.00 0.00 0.00 89 1016.0
20260831223515 71 57 0.0 0.0 0.00 0.00 0.00 88 1015.8
20260831223012 71 283 0.0 0.9 0.00 0.00 0.00 88 1015.9
20260831222508 71 71 0.0 0.0 0.00 0.00 0.00 88 1015.9
20260831222007 71 52 0.0 0.0 0.00 0.00 0.00 88 1015.9
20260831221503 71 68 0.0 0.0 0.00 0.00 0.00 88 1015.9
20260831220958 71 57 0.9 0.9 0.00 0.00 0.00 87 1015.8
20260831220454 72 150 0.9 0.9 0.00 0.00 0.00 87 1015.7
20260831215949 72 80 0.0 0.0 0.00 0.00 0.00 86 1016.0
20260831215444 72 61 0.0 0.0 0.00 0.00 0.00 86 1015.8
20260831214940 72 17 0.0 0.0 0.00 0.00 0.00 86 1015.7
20260831214437 72 107 0.0 0.0 0.00 0.00 0.00 86 1015.7
20260831213933 72 106 0.0 0.9 0.00 0.00 0.00 85 1015.8
20260831213430 73 79 0.0 0.0 0.00 0.00 0.00 85 1015.8
20260831212929 73 92 0.0 0.0 0.00 0.00 0.00 85 1015.8
20260831212426 73 61 0.0 0.0 0.00 0.00 0.00 82 1015.8
20260831211925 74 61 0.0 0.0 0.00 0.00 0.00 82 1015.7
20260831211420 74 79 0.0 0.0 0.00 0.00 0.00 81 1015.7
20260831210914 74 72 0.0 0.0 0.00 0.00 0.00 80 1015.7
20260831210409 74 112 0.9 0.9 0.00 0.00 0.00 79 1015.7
20260831205905 74 91 0.0 0.0 0.00 0.00 0.00 80 1015.6
20260831205400 74 73 0.0 0.0 0.00 0.00 0.00 79 1015.8
20260831204855 74 88 0.0 0.0 0.00 0.00 0.00 79 1015.8
20260831204354 74 14 0.0 0.0 0.00 0.00 0.00 76 1015.8
20260831203853 74 144 0.0 0.0 0.00 0.00 0.00 79 1015.7
20260831203343 74 32 0.0 0.0 0.00 0.00 0.00 78 1015.6
20260831202841 75 254 0.9 0.9 0.00 0.00 0.00 75 1015.4
20260831202337 75 312 0.0 0.9 0.00 0.00 0.00 75 1015.6
20260831201836 75 151 0.0 0.9 0.00 0.00 0.00 76 1015.5
20260831201335 75 264 0.0 0.0 0.00 0.00 0.00 78 1015.7
20260831200831 74 92 0.0 0.0 0.00 0.00 0.00 78 1015.8
20260831200326 75 86 0.0 0.0 0.00 0.00 0.00 80 1015.8
20260831195821 75 84 0.0 0.0 0.00 0.00 0.00 76 1015.8
20260831195317 75 84 0.0 0.0 0.00 0.00 0.00 76 1016.1
20260831194812 75 79 0.0 0.0 0.00 0.00 0.00 78 1016.0
20260831194307 75 88 0.0 0.0 0.00 0.00 0.00 75 1016.1
20260831193806 75 53 0.0 0.0 0.00 0.00 0.00 76 1016.2
20260831193301 76 179 0.9 0.9 0.00 0.00 0.00 79 1016.3
20260831192756 76 216 0.9 0.9 0.00 0.00 0.00 72 1016.1
20260831192252 77 53 0.0 0.0 0.00 0.00 0.00 71 1016.5
20260831191748 76 54 0.0 0.0 0.00 0.00 0.00 71 1016.4
20260831191244 76 155 0.0 0.0 0.00 0.00 0.00 75 1016.4
20260831190738 77 56 0.0 0.0 0.00 0.00 0.00 72 1016.5
20260831190233 78 304 1.7 1.7 0.00 0.00 0.00 72 1016.6
20260831185727 78 5 0.0 0.0 0.00 0.00 0.00 69 1016.7
20260831185223 78 73 0.9 0.9 0.00 0.00 0.00 70 1016.7
20260831184722 77 54 0.0 0.0 0.00 0.00 0.00 72 1016.7
20260831184218 78 15 0.9 0.9 0.00 0.00 0.00 71 1016.7
20260831183717 78 196 0.9 1.7 0.00 0.00 0.00 70 1016.6
20260831183212 78 94 0.0 0.0 0.00 0.00 0.00 68 1016.7
20260831182711 79 301 0.0 0.9 0.00 0.00 0.00 72 1016.7
20260831182206 78 61 0.0 0.0 0.00 0.00 0.00 69 1016.6
20260831181701 77 95 0.0 0.0 0.00 0.00 0.00 72 1016.8
20260831181156 78 68 0.0 0.0 0.00 0.00 0.00 71 1017.0
20260831180651 77 322 0.9 0.9 0.00 0.00 0.00 68 1017.0
20260831180146 76 42 0.0 0.0 0.00 0.00 0.00 68 1017.2
20260831175645 76 59 0.0 0.0 0.00 0.00 0.00 67 1017.3
20260831175143 76 31 0.0 0.0 0.00 0.00 0.00 73 1017.3
20260831174637 75 267 0.0 0.0 0.00 0.00 0.00 67 1017.1
20260831174132 75 113 0.0 0.0 0.00 0.00 0.00 72 1017.2
20260831173630 75 122 0.9 0.9 0.00 0.00 0.00 74 1017.5
20260831173126 75 86 0.0 0.0 0.00 0.00 0.00 77 1017.4
20260831172621 75 252 0.0 0.0 0.00 0.00 0.00 67 1017.4
20260831172120 76 112 0.0 0.0 0.00 0.00 0.00 72 1017.1
20260831171615 76 66 0.0 0.0 0.00 0.00 0.00 68 1017.3
20260831171113 77 64 0.0 0.0 0.00 0.00 0.00 67 1017.2
20260831170609 77 114 0.0 0.9 0.00 0.00 0.00 71 1017.1
20260831170106 77 29 0.0 0.9 0.00 0.00 0.00 68 1016.9
20260831165602 79 54 0.0 0.0 0.00 0.00 0.00 71 1017.0
20260831165058 80 210 0.9 1.7 0.00 0.00 0.00 73 1017.2
20260831164554 78 74 0.0 0.0 0.00 0.00 0.00 75 1017.3
20260831164049 77 335 0.0 0.0 0.00 0.00 0.00 70 1017.0
20260831163544 77 189 0.0 0.0 0.00 0.00 0.00 72 1017.3
20260831163039 76 40 0.0 0.9 0.00 0.00 0.00 75 1017.4
20260831162538 76 334 0.9 0.9 0.00 0.00 0.00 74 1017.5
20260831162036 75 82 0.0 0.9 0.00 0.00 0.00 79 1017.3
20260831161533 76 105 0.9 0.9 0.00 0.00 0.00 76 1017.6
20260831161029 76 38 0.9 0.9 0.00 0.00 0.00 73 1017.4
20260831160528 76 214 1.7 1.7 0.00 0.00 0.00 76 1017.5
20260831160024 76 32 0.9 0.9 0.00 0.00 0.00 75 1017.7
20260831155518 75 65 0.0 0.0 0.00 0.00 0.00 77 1017.7
20260831155013 75 59 0.0 0.0 0.00 0.00 0.00 76 1017.7
20260831154509 76 77 0.0 0.0 0.00 0.00 0.00 76 1017.9
20260831154008 75 255 0.9 1.7 0.00 0.00 0.00 77 1017.7
20260831153503 74 125 0.9 1.7 0.00 0.00 0.00 80 1017.6
20260831153000 74 40 0.0 0.0 0.00 0.00 0.00 79 1017.7
20260831152455 74 56 0.0 0.0 0.00 0.00 0.00 80 1017.7
20260831151950 74 64 0.0 0.0 0.00 0.00 0.00 83 1017.6
20260831151449 73 62 0.0 0.0 0.00 0.00 0.00 80 1017.8
20260831150944 73 70 0.0 0.0 0.00 0.00 0.00 82 1017.8
20260831150440 73 62 0.0 0.0 0.00 0.00 0.00 83 1017.6
20260831145940 73 49 0.0 0.0 0.00 0.00 0.00 88 1017.7
20260831145436 73 295 0.0 0.0 0.00 0.00 0.00 86 1017.6
20260831144931 72 76 0.0 0.0 0.00 0.00 0.00 85 1017.6
20260831144427 72 245 0.9 0.9 0.00 0.00 0.00 85 1017.5
20260831143922 71 41 0.0 0.0 0.00 0.00 0.00 88 1017.7
20260831143417 71 26 0.9 0.9 0.00 0.00 0.00 88 1017.9
20260831142913 71 42 0.0 0.0 0.00 0.00 0.00 90 1017.7
20260831142408 71 186 1.7 1.7 0.00 0.00 0.00 88 1017.8
20260831141902 70 50 0.0 0.0 0.00 0.00 0.00 91 1017.6
20260831141356 69 47 0.0 0.0 0.00 0.00 0.00 92 1017.6
20260831140852 69 85 0.0 0.0 0.00 0.00 0.00 93 1017.7
20260831140346 69 103 0.0 0.0 0.00 0.00 0.00 93 1017.7
20260831135845 69 59 0.0 0.0 0.00 0.00 0.00 95 1017.7
20260831135340 68 66 0.0 0.0 0.00 0.00 0.00 96 1017.5
20260831134835 68 63 0.0 0.0 0.00 0.00 0.00 97 1017.6
20260831134332 67 42 0.9 0.9 0.00 0.00 0.00 99 1017.6
20260831133831 66 72 0.0 0.0 0.00 0.00 0.00 99 1017.7
20260831133330 66 30 0.9 0.9 0.00 0.00 0.00 99 1017.6
20260831132826 66 62 0.0 0.0 0.00 0.00 0.00 99 1017.4
20260831132321 66 65 0.0 0.0 0.00 0.00 0.00 99 1017.6
20260831131815 66 48 0.0 0.0 0.00 0.00 0.00 99 1017.6
20260831131311 65 66 0.0 0.0 0.00 0.00 0.00 99 1017.6
20260831130806 65 25 0.9 0.9 0.00 0.00 0.00 99 1017.6
20260831130302 66 41 0.0 0.0 0.00 0.00 0.00 99 1017.8
20260831125801 66 48 0.0 0.0 0.00 0.00 0.00 99 1017.7
20260831125256 65 37 0.0 0.0 0.00 0.00 0.00 99 1017.4
20260831124756 65 61 0.0 0.0 0.00 0.00 0.00 99 1017.3
20260831124252 65 48 0.0 0.0 0.00 0.00 0.00 99 1017.5
20260831123747 65 60 0.0 0.0 0.00 0.00 0.00 99 1017.7
20260831123245 64 42 0.0 0.0 0.00 0.00 0.00 99 1017.6
20260831122740 64 42 0.0 0.0 0.00 0.00 0.00 99 1017.3
20260831122236 64 50 0.0 0.0 0.00 0.00 0.00 99 1017.5
20260831121735 64 39 0.0 0.0 0.00 0.00 0.00 99 1017.4
20260831121232 64 71 0.0 0.0 0.00 0.00 0.00 99 1017.5
20260831120726 64 28 0.0 0.9 0.00 0.00 0.00 99 1017.7
20260831120221 64 17 0.9 0.9 0.00 0.00 0.00 99 1017.5
20260831115717 64 52 0.0 0.0 0.00 0.00 0.00 99 1017.5
20260831115213 64 44 0.0 0.0 0.00 0.00 0.00 99 1017.5
20260831114712 64 44 0.0 0.0 0.00 0.00 0.00 99 1017.4
20260831114211 63 52 0.0 0.0 0.00 0.00 0.00 99 1017.6
20260831113707 63 15 0.0 0.9 0.00 0.00 0.00 99 1017.4
20260831113201 63 71 0.0 0.0 0.00 0.00 0.00 99 1017.1
20260831112701 63 73 0.0 0.0 0.00 0.00 0.00 99 1017.5
20260831112156 63 52 0.0 0.0 0.00 0.00 0.00 99 1017.3
20260831111652 63 70 0.0 0.0 0.00 0.00 0.00 99 1017.3
20260831111148 63 74 0.0 0.0 0.00 0.00 0.00 99 1017.1
20260831110643 62 71 0.0 0.0 0.00 0.00 0.00 99 1017.0
20260831110138 62 87 0.0 0.0 0.00 0.00 0.00 99 1016.9
20260831105637 62 86 0.0 0.0 0.00 0.00 0.00 99 1017.0
20260831105132 63 51 0.0 0.0 0.00 0.00 0.00 99 1017.0
20260831104628 63 26 0.0 0.0 0.00 0.00 0.00 99 1016.8
20260831104124 63 25 0.9 0.9 0.00 0.00 0.00 99 1016.8
20260831103619 63 46 0.0 0.0 0.00 0.00 0.00 99 1016.6
20260831103114 62 48 0.0 0.0 0.00 0.00 0.00 99 1016.7
20260831102609 63 85 0.0 0.0 0.00 0.00 0.00 99 1016.6
20260831102104 63 19 0.9 0.9 0.00 0.00 0.00 99 1016.7
20260831101603 63 52 0.0 0.0 0.00 0.00 0.00 99 1016.6
20260831101100 63 52 0.0 0.0 0.00 0.00 0.00 99 1016.4
20260831100556 63 71 0.0 0.0 0.00 0.00 0.00 99 1016.5
20260831100052 63 73 0.0 0.0 0.00 0.00 0.00 99 1016.4
20260831095549 63 71 0.0 0.0 0.00 0.00 0.00 99 1016.2
20260831095045 63 42 0.0 0.0 0.00 0.00 0.00 99 1016.5
20260831094541 63 14 0.9 1.7 0.00 0.00 0.00 99 1016.3
20260831094037 63 26 0.9 0.9 0.00 0.00 0.00 99 1016.3
20260831093537 63 31 0.0 0.9 0.00 0.00 0.00 99 1016.5
20260831093034 63 26 0.0 0.9 0.00 0.00 0.00 99 1016.2
20260831092529 63 30 0.9 0.9 0.00 0.00 0.00 99 1016.4
20260831092025 63 47 0.0 0.0 0.00 0.00 0.00 99 1016.4
20260831091519 63 26 0.9 0.9 0.00 0.00 0.00 99 1016.3
20260831091015 63 34 0.9 0.9 0.00 0.00 0.00 99 1016.4
20260831090510 64 17 0.9 0.9 0.00 0.00 0.00 99 1016.1
20260831090005 64 22 0.9 0.9 0.00 0.00 0.00 99 1016.3
20260831085500 64 35 0.9 0.9 0.00 0.00 0.00 99 1016.2
20260831084955 64 26 0.9 0.9 0.00 0.00 0.00 99 1016.2
20260831084451 64 55 0.0 0.0 0.00 0.00 0.00 99 1016.2
20260831083948 64 75 0.0 0.0 0.00 0.00 0.00 99 1016.4
20260831083442 64 64 0.0 0.0 0.00 0.00 0.00 99 1016.5
20260831082942 64 47 0.9 0.9 0.00 0.00 0.00 99 1016.2
20260831082443 64 49 0.9 0.9 0.00 0.00 0.00 99 1016.1
20260831081936 64 40 1.7 1.7 0.00 0.00 0.00 99 1016.2
20260831081433 64 67 0.0 0.0 0.00 0.00 0.00 99 1016.6
20260831080929 64 40 0.9 0.9 0.00 0.00 0.00 99 1016.6
20260831080423 65 50 0.0 0.0 0.00 0.00 0.00 99 1016.4
20260831075919 64 58 0.0 0.0 0.00 0.00 0.00 99 1016.3
20260831075414 64 70 0.0 0.0 0.00 0.00 0.00 99 1016.2
20260831074909 64 70 0.0 0.0 0.00 0.00 0.00 99 1016.3
20260831074409 64 76 0.0 0.0 0.00 0.00 0.00 99 1016.3
20260831073904 65 65 0.0 0.0 0.00 0.00 0.00 99 1016.1
20260831073403 65 59 0.0 0.0 0.00 0.00 0.00 99 1016.1
20260831072858 65 42 0.0 0.0 0.00 0.00 0.00 99 1016.1
20260831072353 65 42 0.0 0.0 0.00 0.00 0.00 99 1016.1
20260831071849 65 35 0.0 0.0 0.00 0.00 0.00 99 1016.0
20260831071349 65 85 0.0 0.0 0.00 0.00 0.00 99 1016.2
20260831070843 65 85 0.0 0.0 0.00 0.00 0.00 99 1016.2
20260831070343 65 93 0.0 0.0 0.00 0.00 0.00 99 1016.2
20260831065842 65 66 0.0 0.0 0.00 0.00 0.00 99 1016.4
20260831065340 65 66 0.0 0.0 0.00 0.00 0.00 99 1016.2
20260831064835 65 66 0.0 0.0 0.00 0.00 0.00 99 1016.2
20260831064330 65 66 0.0 0.0 0.00 0.00 0.00 99 1016.3
20260831063826 65 66 0.0 0.0 0.00 0.00 0.00 99 1016.3
20260831063326 65 74 0.0 0.0 0.00 0.00 0.00 99 1016.3
20260831062821 65 75 0.0 0.0 0.00 0.00 0.00 99 1016.0
20260831062316 65 86 0.0 0.0 0.00 0.00 0.00 99 1015.9
20260831061815 65 58 0.0 0.0 0.00 0.00 0.00 99 1016.1
20260831061314 65 66 0.0 0.0 0.00 0.00 0.00 99 1016.0
20260831060811 66 87 0.0 0.0 0.00 0.00 0.00 99 1016.0
20260831060310 66 66 0.0 0.0 0.00 0.00 0.00 99 1016.1
20260831055810 66 63 0.0 0.0 0.00 0.00 0.00 99 1016.3
20260831055306 66 26 0.0 0.0 0.00 0.00 0.00 99 1016.2
20260831054800 66 47 0.0 0.0 0.00 0.00 0.00 99 1016.1
20260831054255 66 58 0.0 0.0 0.00 0.00 0.00 99 1016.2
20260831053754 66 41 0.0 0.0 0.00 0.00 0.00 99 1016.2
20260831053253 66 47 0.0 0.0 0.00 0.00 0.00 99 1016.0
20260831052748 66 43 0.0 0.0 0.00 0.00 0.00 99 1016.0
20260831052247 66 44 0.0 0.0 0.00 0.00 0.00 99 1016.0
20260831051745 66 6 0.0 0.0 0.00 0.00 0.00 99 1015.9
20260831051244 67 40 0.0 0.0 0.00 0.00 0.00 99 1015.8
20260831050739 67 67 0.0 0.0 0.00 0.00 0.00 99 1016.1
20260831050238 67 67 0.0 0.0 0.00 0.00 0.00 99 1015.8
20260831045732 67 63 0.0 0.0 0.00 0.00 0.00 99 1015.6
20260831045227 68 97 0.0 0.0 0.00 0.00 0.00 99 1015.6
20260831044722 68 48 0.0 0.0 0.00 0.00 0.00 99 1015.9
20260831044217 68 66 0.0 0.0 0.00 0.00 0.00 99 1015.8
20260831043713 68 85 0.0 0.0 0.00 0.00 0.00 99 1015.8
20260831043208 68 81 0.0 0.0 0.00 0.00 0.00 99 1015.7
20260831042707 68 58 0.0 0.0 0.00 0.00 0.00 99 1015.7
20260831042202 68 27 0.0 0.0 0.00 0.00 0.00 99 1015.7
20260831041657 68 27 0.0 0.0 0.00 0.00 0.00 99 1015.6
20260831041156 68 5 0.0 0.0 0.00 0.00 0.00 99 1015.8
20260831040652 68 36 0.0 0.0 0.00 0.00 0.00 99 1015.8
20260831040150 68 42 0.0 0.0 0.00 0.00 0.00 99 1015.8
20260831035649 68 58 0.0 0.0 0.00 0.07 0.07 99 1015.8
20260831035144 68 59 0.0 0.0 0.00 0.07 0.07 99 1015.9
20260831034643 68 58 0.0 0.0 0.00 0.07 0.07 99 1015.9
20260831034138 69 59 0.0 0.0 0.00 0.07 0.07 99 1015.8
20260831033633 69 59 0.0 0.0 0.00 0.07 0.07 99 1015.8
20260831033128 69 65 0.0 0.0 0.00 0.07 0.07 99 1015.7
20260831032623 69 78 0.0 0.0 0.00 0.07 0.07 99 1015.8
20260831032119 69 93 0.0 0.0 0.00 0.07 0.07 99 1015.9
20260831031619 69 66 0.0 0.0 0.00 0.07 0.07 99 1015.7
20260831031118 69 81 0.0 0.0 0.00 0.07 0.07 99 1016.0
20260831030617 69 93 0.0 0.0 0.00 0.07 0.07 99 1015.9
20260831030116 69 85 0.0 0.0 0.00 0.07 0.07 99 1016.0
20260831025614 69 98 0.0 0.0 0.00 0.07 0.07 99 1016.0
20260831025110 69 87 0.0 0.0 0.00 0.07 0.07 99 1015.9
20260831024606 70 93 0.0 0.0 0.00 0.07 0.07 99 1016.3
20260831024104 70 82 0.0 0.0 0.00 0.07 0.07 99 1016.0
20260831023603 70 308 0.0 0.0 0.05 0.07 0.07 99 1016.3
20260831023103 70 133 0.0 0.0 0.05 0.07 0.07 99 1016.3
20260831022557 70 63 0.0 0.0 0.05 0.07 0.07 99 1016.6
20260831022052 70 101 0.0 0.0 0.00 0.06 0.06 99 1016.4
20260831021551 70 63 0.0 0.0 0.00 0.06 0.06 99 1016.4
20260831021047 70 209 0.0 0.0 0.00 0.06 0.06 99 1016.4
20260831020542 70 222 0.9 0.9 0.00 0.06 0.06 99 1016.4
20260831020037 70 228 0.9 1.7 0.00 0.06 0.06 99 1016.1
20260831015533 70 236 0.9 0.9 0.00 0.06 0.06 99 1016.2
20260831015027 70 227 0.9 0.9 0.00 0.06 0.06 99 1016.0
20260831014522 70 201 0.9 0.9 0.00 0.06 0.06 99 1016.1
20260831014018 70 193 0.9 0.9 0.00 0.06 0.06 99 1016.0
20260831013514 70 194 0.9 0.9 0.00 0.06 0.06 99 1015.9
20260831013014 70 193 0.9 0.9 0.00 0.06 0.06 99 1015.6
20260831012508 70 191 0.0 0.9 0.00 0.06 0.06 99 1015.7
20260831012003 70 188 0.9 0.9 0.00 0.06 0.06 99 1015.7
20260831011457 70 184 0.9 0.9 0.07 0.06 0.06 99 1015.6
20260831010953 70 192 0.9 0.9 0.07 0.06 0.06 99 1015.7
20260831010453 70 201 0.0 0.9 0.00 0.05 0.05 99 1015.8
20260831005949 70 124 0.0 0.0 0.00 0.05 0.05 99 1015.8
20260831005445 70 160 0.0 0.9 0.00 0.05 0.05 99 1015.8
20260831004944 71 219 0.9 0.9 0.05 0.05 0.05 99 1015.8
20260831004441 71 201 0.9 0.9 0.05 0.05 0.05 99 1015.6